Regional Weather Roundup
Issued by NWS

Home | Current Version | Previous Version | Text Only | Print | Product List | Glossary On
Versions: 1 2 3 4 5 6 7 8 9 10 11 12 13 14 15 16 17 18 19 20 21 22 23 24 25 26 27 28 29 30 31 32 33 34 35 36 37 38 39 40 41 42 43 44 45 46 47 48 49 50
000
ASUS46 KPQR 241810
RWROR

OREGON REGIONAL WEATHER ROUNDUP
NATIONAL WEATHER SERVICE PORTLAND OR
1000 AM PST MON NOV 24 2014

NOTE: "FAIR" INDICATES FEW OR NO CLOUDS BELOW 12,000 FEET WITH
NO SIGNIFICANT WEATHER AND/OR OBSTRUCTIONS TO VISIBILITY.

ORZ001>013-241900-
NORTHWEST OREGON


CITY           SKY/WX    TMP DP  RH WIND       PRES   REMARKS
ASTORIA        CLOUDY    48  46  93 E5        30.32S
6HR MIN TEMP:  39; 6HR MAX TEMP:  48; 6HR PCP: TRACE;

NEWPORT        MOSUNNY   52  46  82 E3        30.38R
PORTLAND       PTSUNNY   49  47  93 E7        30.38S
6HR MIN TEMP:  47; 6HR MAX TEMP:  49;

VANCOUVER WA   PTSUNNY   49  45  86 SE8       30.38R
6HR MIN TEMP:  47; 6HR MAX TEMP:  49;

SCAPPOOSE      CLOUDY    49  47  93 CALM      30.37S
6HR MIN TEMP:  47; 6HR MAX TEMP:  50;

HILLSBORO      FOG      N/A N/A N/A CALM      30.37S VSB 1/2
AURORA         PTSUNNY   46  46 100 CALM      30.38F
6HR MIN TEMP:  42; 6HR MAX TEMP:  46;

MCMINNVILLE    FOG       46  46 100 CALM      30.38S VSB 1/4
6HR MIN TEMP:  44; 6HR MAX TEMP:  48;

SALEM          PTSUNNY   49  43  80 S5        30.37F
6HR MIN TEMP:  43; 6HR MAX TEMP:  49;

CORVALLIS      PTSUNNY   46  43  87 SE3       30.39S
EUGENE         PTSUNNY   48  41  76 S12       30.39S
6HR MIN TEMP:  37; 6HR MAX TEMP:  48;

$$

ORZ021-028-241900-
SOUTHWEST OREGON


CITY           SKY/WX    TMP DP  RH WIND       PRES   REMARKS
NORTH BEND     CLOUDY    48  46  93 SE7       30.39R
6HR MIN TEMP:  43; 6HR MAX TEMP:  48;

BROOKINGS      PTSUNNY   53  41  64 VRB3      30.40R
ROSEBURG       SUNNY     44  38  79 SE6       30.42S
6HR MIN TEMP:  36; 6HR MAX TEMP:  44;

SEXTON SUMMIT  SUNNY     40  30  67 SE13      30.37R WCI  32
6HR MIN TEMP:  34; 6HR MAX TEMP:  41;

MEDFORD        CLOUDY    41  37  86 N5        30.46S
6HR MIN TEMP:  39; 6HR MAX TEMP:  42;

$$

ORZ009-041-241900-
COLUMBIA GORGE


CITY           SKY/WX    TMP DP  RH WIND       PRES   REMARKS
TROUTDALE      PTSUNNY   50  44  80 E9        30.37F
6HR MIN TEMP:  46; 6HR MAX TEMP:  50;

THE DALLES     PTSUNNY   44  37  76 E3        30.39F
6HR MIN TEMP:  37; 6HR MAX TEMP:  44;

$$

ORZ029>031-042>050-061>064-241900-
EASTERN OREGON


CITY           SKY/WX    TMP DP  RH WIND       PRES   REMARKS
REDMOND        PTSUNNY   40  29  64 S12       30.39R WCI  33
6HR MIN TEMP:  27; 6HR MAX TEMP:  40;

BEND           PTSUNNY   39  28  65 S12       30.40S WCI  32
PRINEVILLE     PTSUNNY   39  32  75 SE5       30.40S
KLAMATH FALLS  SUNNY     33  29  85 E7        30.45S WCI  27
6HR MIN TEMP:  22; 6HR MAX TEMP:  33;

LAKEVIEW       MOSUNNY   34  28  80 CALM      30.47R
HERMISTON      MOSUNNY   48  37  65 CALM      30.39S
6HR MIN TEMP:  29; 6HR MAX TEMP:  48;

PENDLETON      MOSUNNY   44  35  70 S8        30.38S
6HR MIN TEMP:  34; 6HR MAX TEMP:  44;

JOHN DAY       SUNNY     39  31  73 SE8G21    30.41S WCI  34
MEACHAM        MOSUNNY   40  34  79 CALM      30.35S
6HR MIN TEMP:  31; 6HR MAX TEMP:  40;

LA GRANDE      SUNNY     43  27  52 SE3       30.39S
6HR MIN TEMP:  30; 6HR MAX TEMP:  43;

BAKER CITY     SUNNY     39  29  67 E5        30.42S
6HR MIN TEMP:  20; 6HR MAX TEMP:  39;

BURNS          MOSUNNY   34  28  79 S6        30.45R WCI  29
6HR MIN TEMP:  21; 6HR MAX TEMP:  34;

ROME             N/A     41  24  51 SW8       30.43R
6HR MIN TEMP:  27; 6HR MAX TEMP:  41;

ONTARIO        SUNNY     36  29  75 CALM      30.49R
6HR MIN TEMP:  22; 6HR MAX TEMP:  36;

$$



USA.gov is the U.S. government's official web portal to all federal, state and local government web resources and services.